Skip Page Navigation
NASA JPL Caltech
NASA Logo - Jet Propulsion Laboratory + View the NASA Portal
+ Center for Near-Earth Object Studies
JPL Home Earth Solar System Stars & Galaxies Technology
JPL Solar System Dynamics
BODIES ORBITS EPHEMERIDES TOOLS PHYSICAL DATA DISCOVERY FAQ SITE MAP
IMPORTANT: The SSD Announcement email list is now available. Major changes are coming in the near future, including possible hostname and/or URL changes. To be notified of such changes, subscribe to this email list.

Please visit this page for more details.


JPL Small-Body Database Browser
Search: [ help ]  
(2019 GT3)
Classification: Apollo [NEO, PHA]          SPK-ID: 3840850
Ephemeris | Orbit Diagram | Orbital Elements | Mission Design | Physical Parameters | Close-Approach Data ]

[ show orbit diagram ]
Orbital Elements at Epoch 2458600.5 (2019-Apr-27.0) TDB
Reference: JPL 55 (heliocentric ecliptic J2000)
 Element Value Uncertainty (1-sigma)   Units 
e .6195159445082425 3.0659e-06  
a 2.368092243828456 1.7886e-05 au
q .9010213407104265 4.5609e-07 au
i 2.331867405141109 1.0873e-05 deg
node 225.3428505811578 0.00014972 deg
peri 69.53770207617046 0.00014308 deg
M 333.5943183844904 0.00029223 deg
tp 2458698.131785467195
(2019-Aug-02.63178547)
2.5922e-05 TDB
period 1331.056068916089
3.64
0.01508
4.129e-05
d
yr
n .2704619350056055 3.0641e-06 deg/d
Q 3.835163146946484 2.8966e-05 au
  Orbit Determination Parameters
   # obs. used (total)      443  
   data-arc span      201 days  
   first obs. used      2019-04-03  
   last obs. used      2019-10-21  
   planetary ephem.      DE431  
   SB-pert. ephem.      SB431-N16  
   condition code      4  
   norm. resid. RMS      .37927  
   source      ORB  
   producer      Otto Matic  
   solution date      2019-Oct-21 05:58:11  

Additional Information
 Earth MOID = .01704 au 
 Jupiter MOID = 1.4174 au 
 T_jup = 3.256 
[ show covariance matrix ]

Ephemeris | Orbit Diagram | Orbital Elements | Mission Design | Physical Parameters | Close-Approach Data ]

Physical Parameter Table
Parameter Symbol Value Units Sigma Reference Notes
absolute magnitude H 21.019   .40989 55 autocmod 2.8

[ show close-approach data ]
Ephemeris | Orbit Diagram | Orbital Elements | Mission Design | Physical Parameters | Close-Approach Data ]
ABOUT SSD CREDITS/AWARDS PRIVACY/COPYRIGHT GLOSSARY LINKS
FirstGov
(server date/time)  
NASA Home Page
Site Manager:   Ryan S. Park
Webmaster  Alan B. Chamberlin